Date,TemperatureHighF,TemperatureAvgF,TemperatureLowF,DewpointHighF,DewpointAvgF,DewpointLowF,HumidityHigh,HumidityAvg,HumidityLow,PressureMaxIn,PressureMinIn,WindSpeedMaxMPH,WindSpeedAvgMPH,GustSpeedMaxMPH,PrecipitationSumIn
2013-1-1,33,28,16,27,18,4,79,67,56,29.87,29.68,16,4,27,0.00
2013-1-2,27,17,7,17,9,-1,84,71,60,30.09,29.86,15,1,15,0.00
2013-1-3,22,11,-2,12,1,-8,80,65,41,30.11,29.97,9,1,10,0.00
2013-1-4,35,27,17,26,20,12,88,74,65,29.97,29.79,13,2,19,0.00
2013-1-5,39,32,20,26,22,15,83,67,52,30.21,29.81,13,2,19,0.00
2013-1-6,38,30,21,30,25,17,92,81,69,30.17,29.90,8,1,12,0.00
2013-1-7,35,29,17,29,22,13,92,75,46,30.34,29.94,11,1,14,0.00
2013-1-8,42,31,16,30,24,12,88,76,61,30.33,30.24,12,2,15,0.00
2013-1-9,42,35,20,35,30,18,94,80,58,30.34,29.98,14,2,20,0.00
2013-1-10,43,38,30,31,26,23,76,62,51,30.49,30.04,18,2,25,0.00
2013-1-11,36,31,23,34,27,19,95,84,67,30.48,30.15,5,0,9,0.00
2013-1-12,42,38,36,41,38,34,97,97,95,30.16,30.08,4,0,7,0.00
2013-1-13,46,42,38,45,42,37,98,98,97,30.10,29.95,7,0,10,0.00
2013-1-14,53,45,34,51,40,28,99,85,63,30.21,29.82,13,2,18,0.00
2013-1-15,38,33,28,28,26,24,87,74,64,30.27,30.16,8,0,9,0.00
2013-1-16,33,31,28,31,29,24,96,92,77,30.20,29.78,6,0,6,0.00
2013-1-17,38,32,24,33,26,14,96,81,62,30.05,29.79,11,2,14,0.00
2013-1-18,24,18,12,16,5,0,72,57,42,30.39,29.99,13,2,16,0.00
2013-1-19,42,32,18,31,22,9,74,65,56,30.32,29.83,19,4,21,0.00
2013-1-20,47,37,25,33,25,12,77,63,37,29.88,29.51,19,4,24,0.00
2013-1-21,25,20,15,18,12,6,90,69,57,30.02,29.74,12,1,18,0.00
2013-1-22,20,15,7,16,6,-1,91,68,43,30.03,29.72,18,2,18,0.00
2013-1-23,12,6,2,3,-5,-9,80,59,45,30.10,30.01,14,2,19,0.00
2013-1-24,16,6,-4,-2,-6,-10,75,56,41,30.22,30.05,16,2,22,0.00
2013-1-25,19,12,4,10,-2,-8,84,55,39,30.29,30.02,10,1,11,0.00
2013-1-26,21,13,6,10,3,-2,86,66,43,30.22,29.97,14,2,20,0.00
2013-1-27,27,16,6,8,4,0,77,58,39,30.44,30.21,12,1,16,0.00
2013-1-28,26,20,10,23,14,2,93,79,50,30.42,29.97,6,0,9,0.00
2013-1-29,34,30,25,32,28,23,96,93,90,30.14,29.97,6,0,8,0.00
2013-1-30,57,48,33,56,47,32,98,97,96,30.08,29.36,19,3,27,0.00
2013-1-31,60,50,27,58,46,15,98,88,60,29.52,28.93,31,8,33,0.00